CW9476 Weather Reports


time (UTC)temp
C
wind
direction
speed
KPH
gust
KPH
rain 1hr
cm
rain 24hr
cm
rain mn
cm
humidity
%
barometer
mb
20260506060114 18 209 6.4 12.9 0.00 0.00 0.00 63 1010.4
20260506051114 18 190 0.0 6.4 0.00 0.00 0.00 60 1010.8
20260506050114 18 230 6.4 8.0 0.00 0.00 0.00 59 1010.8
20260506045113 18 225 0.0 8.0 0.00 0.00 0.00 59 1010.8
20260506044613 19 331 1.6 8.0 0.00 0.00 0.00 58 1010.8
20260506044114 19 204 3.2 8.0 0.00 0.00 0.00 58 1010.8
20260506043613 19 209 6.4 8.0 0.00 0.00 0.00 58 1010.8
20260506042613 19 207 1.6 6.4 0.00 0.00 0.00 58 1010.9
20260506042113 19 185 3.2 8.0 0.00 0.00 0.00 57 1010.8
20260506041614 19 215 3.2 8.0 0.00 0.00 0.00 57 1010.8
20260506041114 19 180 1.6 6.4 0.00 0.00 0.00 57 1010.8
20260506040613 19 69 0.0 4.8 0.00 0.00 0.00 56 1010.8
20260506040113 19 250 1.6 6.4 0.00 0.00 0.00 56 1010.7
20260506034613 19 238 1.6 6.4 0.00 0.00 0.00 56 1010.7
20260506034113 19 253 3.2 8.0 0.00 0.00 0.00 56 1010.6
20260506033613 20 272 4.8 8.0 0.00 0.00 0.00 55 1010.7
20260506033113 20 204 0.0 6.4 0.00 0.00 0.00 55 1010.8
20260506032613 20 235 0.0 6.4 0.00 0.00 0.00 55 1010.7
20260506032113 20 241 1.6 8.0 0.00 0.00 0.00 55 1010.7
20260506031613 20 233 4.8 11.3 0.00 0.00 0.00 54 1010.7
20260506031113 20 131 8.0 11.3 0.00 0.00 0.00 54 1010.8
20260506030613 20 223 1.6 8.0 0.00 0.00 0.00 54 1010.9
20260506030113 20 221 1.6 9.7 0.00 0.00 0.00 53 1010.7
20260506025613 20 302 1.6 9.7 0.00 0.00 0.00 53 1010.8
20260506025113 20 36 3.2 9.7 0.00 0.00 0.00 53 1010.7
20260506023613 21 227 1.6 8.0 0.00 0.00 0.00 51 1010.8
20260506023113 21 217 4.8 6.4 0.00 0.00 0.00 50 1010.8
20260506022613 21 183 4.8 6.4 0.00 0.00 0.00 49 1010.8
20260506021613 21 207 0.0 9.7 0.00 0.00 0.00 48 1010.9
20260506021113 21 254 3.2 9.7 0.00 0.00 0.00 48 1010.9
20260506020613 21 217 3.2 9.7 0.00 0.00 0.00 48 1010.9
20260506020113 21 208 3.2 9.7 0.00 0.00 0.00 48 1010.9
20260506015612 21 233 1.6 11.3 0.00 0.00 0.00 47 1010.5
20260506015113 21 236 1.6 11.3 0.00 0.00 0.00 47 1010.6
20260506014613 21 202 6.4 6.4 0.00 0.00 0.00 47 1010.5
20260506014112 21 211 3.2 6.4 0.00 0.00 0.00 47 1010.5
20260506013613 21 211 1.6 6.4 0.00 0.00 0.00 46 1010.4
20260506013112 22 209 1.6 8.0 0.00 0.00 0.00 46 1010.6
20260506012612 22 205 0.0 8.0 0.00 0.00 0.00 47 1010.4
20260506012112 22 244 1.6 8.0 0.00 0.00 0.00 46 1010.3
20260506011612 22 205 6.4 16.1 0.00 0.00 0.00 46 1010.2
20260506011112 22 252 3.2 16.1 0.00 0.00 0.00 46 1010.1
20260506010612 22 194 1.6 16.1 0.00 0.00 0.00 45 1010.1
20260506010112 22 219 6.4 11.3 0.00 0.00 0.00 46 1010.1
20260506005612 22 268 1.6 4.8 0.00 0.00 0.00 46 1009.9
20260506005112 22 210 1.6 6.4 0.00 0.00 0.00 46 1009.7
20260506004612 22 215 1.6 6.4 0.00 0.00 0.00 45 1009.7
20260506004112 22 257 0.0 6.4 0.00 0.00 0.00 45 1009.6
20260506003612 22 78 3.2 20.9 0.00 0.00 0.00 45 1009.5
20260506002612 22 221 8.0 8.0 0.00 0.00 0.00 46 1009.5
20260506002112 22 151 1.6 8.0 0.00 0.00 0.00 46 1009.5
20260506001612 22 252 0.0 17.7 0.00 0.00 0.00 45 1009.5
20260506001112 22 86 3.2 17.7 0.00 0.00 0.00 46 1009.5
20260506000612 22 215 4.8 11.3 0.00 0.00 0.00 45 1009.5
20260506000112 22 238 1.6 6.4 0.00 0.00 0.00 46 1009.5
20260505235612 22 181 1.6 8.0 0.00 0.00 0.00 46 1009.4
20260505235112 22 250 1.6 8.0 0.00 0.00 0.00 45 1009.3
20260505234612 22 223 1.6 6.4 0.00 0.00 0.00 45 1009.3
20260505234112 22 213 1.6 8.0 0.00 0.00 0.00 45 1009.2
20260505233112 23 227 4.8 8.0 0.00 0.00 0.00 44 1009.3
20260505232612 23 223 3.2 8.0 0.00 0.00 0.00 45 1009.4
20260505232111 23 194 1.6 8.0 0.00 0.00 0.00 44 1009.3
20260505231611 23 200 1.6 8.0 0.00 0.00 0.00 44 1009.3
20260505231112 23 244 0.0 8.0 0.00 0.00 0.00 44 1009.3
20260505230611 23 230 4.8 8.0 0.00 0.00 0.00 43 1009.0
20260505225611 23 190 3.2 9.7 0.00 0.00 0.00 43 1008.9
20260505225111 23 211 1.6 9.7 0.00 0.00 0.00 42 1009.0
20260505224611 23 205 3.2 9.7 0.00 0.00 0.00 42 1008.9
20260505223611 23 174 4.8 14.5 0.00 0.00 0.00 41 1008.7
20260505223111 23 219 1.6 11.3 0.00 0.00 0.00 41 1008.8
20260505222611 23 171 9.7 12.9 0.00 0.00 0.00 42 1008.8
20260505222111 23 273 3.2 12.9 0.00 0.00 0.00 41 1008.7
20260505221111 24 226 11.3 20.9 0.00 0.00 0.00 41 1008.8
20260505220611 24 291 1.6 16.1 0.00 0.00 0.00 41 1008.8
20260505220111 24 237 6.4 14.5 0.00 0.00 0.00 41 1008.7
20260505215611 24 247 8.0 11.3 0.00 0.00 0.00 41 1008.6
20260505215111 24 254 1.6 11.3 0.00 0.00 0.00 41 1008.7
20260505214611 25 268 1.6 14.5 0.00 0.00 0.00 40 1008.7
20260505214111 25 196 6.4 17.7 0.00 0.00 0.00 39 1008.6
20260505213611 25 109 6.4 17.7 0.00 0.00 0.00 39 1008.4
20260505213111 25 331 1.6 11.3 0.00 0.00 0.00 39 1008.2
20260505212611 25 241 0.0 8.0 0.00 0.00 0.00 36 1008.2
20260505211611 25 292 4.8 14.5 0.00 0.00 0.00 34 1008.1
20260505211111 25 250 3.2 14.5 0.00 0.00 0.00 34 1008.1
20260505210611 25 115 3.2 16.1 0.00 0.00 0.00 33 1008.0
20260505210111 25 258 4.8 16.1 0.00 0.00 0.00 33 1008.1
20260505205610 25 155 3.2 16.1 0.00 0.00 0.00 32 1008.0
20260505205111 25 222 4.8 17.7 0.00 0.00 0.00 32 1008.0
20260505204611 25 248 6.4 17.7 0.00 0.00 0.00 33 1007.9
20260505204110 25 203 8.0 20.9 0.00 0.00 0.00 32 1008.1
20260505203610 25 219 8.0 20.9 0.00 0.00 0.00 33 1008.1
20260505203110 25 211 20.9 20.9 0.00 0.00 0.00 33 1008.1
20260505202610 26 215 8.0 20.9 0.00 0.00 0.00 32 1008.0
20260505202110 26 360 6.4 20.9 0.00 0.00 0.00 31 1008.0
20260505201610 26 224 3.2 12.9 0.00 0.00 0.00 32 1007.9
20260505201110 26 67 1.6 14.5 0.00 0.00 0.00 32 1008.1
20260505200610 26 257 3.2 19.3 0.00 0.00 0.00 31 1008.3
20260505195610 26 107 3.2 16.1 0.00 0.00 0.00 32 1008.3
20260505194610 26 137 4.8 17.7 0.00 0.00 0.00 31 1008.6
20260505193610 27 226 4.8 19.3 0.00 0.00 0.00 31 1008.8
20260505193110 26 294 6.4 19.3 0.00 0.00 0.00 33 1008.8
20260505192610 26 242 4.8 17.7 0.00 0.00 0.00 32 1008.7
20260505192110 26 323 16.1 17.7 0.00 0.00 0.00 31 1008.7
20260505191610 26 174 1.6 14.5 0.00 0.00 0.00 34 1008.6
20260505191110 26 173 4.8 14.5 0.00 0.00 0.00 35 1008.6
20260505190610 26 282 9.7 14.5 0.00 0.00 0.00 35 1008.8
20260505190110 26 217 12.9 14.5 0.00 0.00 0.00 34 1009.0
20260505185610 26 215 8.0 14.5 0.00 0.00 0.00 35 1008.9
20260505185110 26 213 6.4 16.1 0.00 0.00 0.00 35 1008.9
20260505184610 26 210 9.7 16.1 0.00 0.00 0.00 36 1009.0
20260505182610 26 46 6.4 16.1 0.00 0.00 0.00 35 1009.5
20260505182110 26 149 9.7 19.3 0.00 0.00 0.00 35 1009.4
20260505181610 26 218 9.7 24.1 0.00 0.00 0.00 36 1009.4
20260505181109 26 165 3.2 24.1 0.00 0.00 0.00 36 1009.4
20260505180610 26 257 4.8 14.5 0.00 0.00 0.00 38 1009.6
20260505180109 26 306 3.2 14.5 0.00 0.00 0.00 38 1009.5
20260505175109 26 246 8.0 22.5 0.00 0.00 0.00 38 1009.7
20260505174609 26 240 4.8 16.1 0.00 0.00 0.00 39 1009.6
20260505174109 26 254 6.4 16.1 0.00 0.00 0.00 39 1009.5
20260505173609 26 219 4.8 16.1 0.00 0.00 0.00 38 1009.6
20260505173109 26 156 3.2 14.5 0.00 0.00 0.00 41 1009.7
20260505172609 26 167 8.0 14.5 0.00 0.00 0.00 41 1009.8
20260505172109 26 273 3.2 12.9 0.00 0.00 0.00 40 1009.7
20260505171609 26 252 6.4 16.1 0.00 0.00 0.00 40 1009.7
20260505171109 26 302 3.2 16.1 0.00 0.00 0.00 39 1009.9
20260505170609 26 320 8.0 17.7 0.00 0.00 0.00 39 1009.8
20260505170109 26 217 4.8 17.7 0.00 0.00 0.00 40 1009.8
20260505165109 26 263 4.8 9.7 0.00 0.00 0.00 42 1010.1
20260505164609 26 178 1.6 14.5 0.00 0.00 0.00 43 1010.1
20260505164109 26 269 3.2 14.5 0.00 0.00 0.00 43 1010.1
20260505163109 25 220 4.8 12.9 0.00 0.00 0.00 44 1010.4
20260505162609 25 220 3.2 11.3 0.00 0.00 0.00 46 1010.4
20260505162108 25 267 3.2 11.3 0.00 0.00 0.00 45 1010.6
20260505161609 25 195 3.2 11.3 0.00 0.00 0.00 45 1010.6
20260505161109 25 221 4.8 14.5 0.00 0.00 0.00 46 1010.6
20260505160609 25 239 3.2 14.5 0.00 0.00 0.00 45 1010.8
20260505160108 25 192 3.2 16.1 0.00 0.00 0.00 46 1010.9
20260505153108 23 223 6.4 8.0 0.00 0.00 0.00 50 1011.0
20260505152608 23 196 4.8 11.3 0.00 0.00 0.00 49 1011.0
20260505152108 23 67 1.6 11.3 0.00 0.00 0.00 50 1010.9
20260505151608 23 136 3.2 9.7 0.00 0.00 0.00 50 1011.0
20260505151108 22 308 3.2 6.4 0.00 0.00 0.00 52 1011.1
20260505150608 22 127 4.8 8.0 0.00 0.00 0.00 51 1011.2
20260505150108 22 214 4.8 11.3 0.00 0.00 0.00 51 1011.2
20260505140107 21 192 1.6 8.0 0.00 0.00 0.00 55 1011.3
20260505130107 18 140 1.6 11.3 0.00 0.00 0.00 62 1011.3
20260505124607 18 293 11.3 11.3 0.00 0.00 0.00 62 1011.3
20260505124107 17 333 3.2 11.3 0.00 0.00 0.00 64 1011.3
20260505123607 17 274 3.2 14.5 0.00 0.00 0.00 64 1011.2
20260505123107 17 215 4.8 14.5 0.00 0.00 0.00 65 1011.2
20260505122606 17 72 3.2 11.3 0.00 0.00 0.00 65 1011.1
20260505122107 17 219 1.6 9.7 0.00 0.00 0.00 65 1011.1
20260505121607 17 265 4.8 9.7 0.00 0.00 0.00 67 1011.2
20260505121107 16 126 1.6 9.7 0.00 0.00 0.00 69 1011.2
20260505120607 16 244 3.2 8.0 0.00 0.00 0.00 70 1011.4
20260505120106 16 239 1.6 14.5 0.00 0.00 0.00 71 1011.2
20260505115606 16 236 6.4 14.5 0.00 0.00 0.00 72 1011.1
20260505115106 15 227 3.2 8.0 0.00 0.00 0.00 73 1010.9
20260505114606 15 203 8.0 8.0 0.00 0.00 0.00 74 1011.0
20260505114106 15 221 1.6 6.4 0.00 0.00 0.00 75 1011.0
20260505113606 14 250 3.2 6.4 0.00 0.00 0.00 76 1010.9
20260505113106 14 245 4.8 6.4 0.00 0.00 0.00 77 1010.9
20260505112106 13 121 1.6 4.8 0.00 0.00 0.00 77 1010.9
20260505111606 13 213 0.0 3.2 0.00 0.00 0.00 77 1010.7
20260505111106 13 206 0.0 4.8 0.00 0.00 0.00 77 1010.8
20260505110606 13 189 1.6 6.4 0.00 0.00 0.00 76 1010.7
20260505110106 13 225 0.0 6.4 0.00 0.00 0.00 76 1010.9
20260505102106 13 207 0.0 3.2 0.00 0.00 0.00 71 1010.9
20260505101606 13 165 0.0 1.6 0.00 0.00 0.00 71 1010.9
20260505101105 13 165 1.6 3.2 0.00 0.00 0.00 70 1010.8
20260505100605 13 165 0.0 3.2 0.00 0.00 0.00 70 1010.7
20260505100105 13 165 1.6 3.2 0.00 0.00 0.00 70 1010.6
20260505095605 13 168 1.6 3.2 0.00 0.00 0.00 68 1010.8
20260505095105 13 95 1.6 8.0 0.00 0.00 0.00 68 1010.7
20260505094606 13 205 0.0 8.0 0.00 0.00 0.00 68 1011.0
20260505094105 13 321 4.8 8.0 0.00 0.00 0.00 68 1010.7
20260505093105 13 146 1.6 4.8 0.00 0.00 0.00 68 1010.8
20260505092605 13 277 0.0 3.2 0.00 0.00 0.00 68 1010.8
20260505092105 13 318 0.0 4.8 0.00 0.00 0.00 68 1010.8
20260505091605 13 281 1.6 4.8 0.00 0.00 0.00 67 1010.6
20260505091105 13 32 0.0 6.4 0.00 0.00 0.00 67 1010.5
20260505090105 13 84 3.2 4.8 0.00 0.00 0.00 67 1010.4
20260505085605 13 304 1.6 4.8 0.00 0.00 0.00 66 1010.5
20260505085105 13 294 1.6 4.8 0.00 0.00 0.00 66 1010.5
20260505084104 13 278 3.2 6.4 0.00 0.00 0.00 65 1010.3
20260505083605 13 232 1.6 4.8 0.00 0.00 0.00 65 1010.3
20260505082605 13 238 0.0 4.8 0.00 0.00 0.00 64 1010.4
20260505081604 13 350 1.6 8.0 0.00 0.00 0.00 64 1010.4
20260505080604 13 232 1.6 9.7 0.00 0.00 0.00 64 1010.3
20260505075605 13 243 0.0 11.3 0.00 0.00 0.00 64 1010.4
20260505075104 13 234 1.6 6.4 0.00 0.00 0.00 64 1010.5
20260505074604 13 114 3.2 4.8 0.00 0.00 0.00 64 1010.5
20260505073604 13 322 1.6 9.7 0.00 0.00 0.00 63 1010.4
20260505072604 13 225 1.6 6.4 0.00 0.00 0.00 64 1010.3
20260505072105 13 251 0.0 4.8 0.00 0.00 0.00 64 1010.3
20260505071105 13 109 3.2 6.4 0.00 0.00 0.00 63 1010.4
20260505070604 13 235 1.6 6.4 0.00 0.00 0.00 63 1010.4
20260505065104 13 236 3.2 8.0 0.00 0.00 0.00 62 1010.4
20260505064604 13 199 1.6 8.0 0.00 0.00 0.00 62 1010.4
20260505064104 13 206 0.0 6.4 0.00 0.00 0.00 62 1010.6
20260505063604 13 224 1.6 6.4 0.00 0.00 0.00 62 1010.6
20260505063104 13 226 4.8 4.8 0.00 0.00 0.00 61 1010.6
20260505062604 13 242 1.6 6.4 0.00 0.00 0.00 61 1010.6
20260505061604 13 170 3.2 9.7 0.00 0.00 0.00 61 1010.5
20260505061103 13 223 6.4 9.7 0.00 0.00 0.00 61 1010.7
20260505060603 13 266 0.0 9.7 0.00 0.00 0.00 61 1010.7